Tracking 30061 objects as of 9-Dec-2024
HD Live streaming from Space Station
objects crossing your sky now

COSMOS 1249 COOLANT

Track COSMOS 1249 COOLANT now!
10-day predictions


NORAD ID: 26509
Int'l Code: 1981-021L
Perigee: 904.6 km
Apogee: 954.0 km
Inclination: 65.0 °
Period: 103.5 minutes
Semi major axis: 7300 km
RCS: 0.006 m2 (small)
Launch date: March 5, 1981
Source: Commonwealth of Independent States (former USSR) (CIS)
Launch site: TYURATAM MISSILE AND SPACE COMPLEX (TTMTR)

Note: This is SATELLITE DEBRIS
Your satellite tracking list
Your tracking list is empty




NASA's NSSDC Master Catalog

Two Line Element Set (TLE):
1 26509U 81021L   24334.74005426  .00000506  00000-0  46551-3 0  9993
2 26509  64.9640 347.6716 0033850  51.9227 308.4882 13.91851441581332
Source of the keplerian elements: AFSPC